Flag for Canada Weather past 2 weeks in Hopedale, Newfoundland and Labrador, Canada

Now
50 °F

Cool.


Feels Like: 47 °F
Forecast: 41 / 50 °F
Wind: 8 mph from Northeast

Location: Hopedale

Current Time: Sep 4, 2015 at 1:53:42 PM

Latest Report: Sep 4, 2015 at 1:00 PM


Visibility: N/A

Pressure: 30.06 "Hg

Humidity: 74%

Dew point: 42 °F

Location of HopedaleLocation

Historic Weather in Hopedale — Graph

°F

Hopedale temperature yesterday

Maximum temperature yesterday: 45 °F (at 3:00 PM)
Minimum temperature yesterday: 41 °F (at 11:00 PM)
Average temperature yesterday: 43 °F

Past Weeks' High & Low Weather Summary

 TemperatureHumidityPressure
High70 °F (Aug 27, 2:00 PM)100% (Aug 20, 4:00 PM)30.16 "Hg (Aug 20, 4:00 PM)
Low40 °F (Sep 4, 5:00 AM)68% (Sep 4, 11:00 AM)29.62 "Hg (Aug 28, 2:00 AM)
Average48 °F91%29.91 "Hg
* Reported Aug 20 1:00 PM — Sep 4 12:00 Noon, Hopedale, Weather by CustomWeather, © 2015

Note: Actual official high and low records may vary slightly from our data, if they occured in-between our weather recording intervals... More about our weather records

Advertising

Hopedale weather history for previous 24 hours

 ConditionsComfort  
Time TempWeatherWind HumidityBarometerVisibility
12:00 PM
Fri, Sep 4
50 °FCool.3 mph74%30.08 "HgN/A
11:00 AM50 °FCool.10 mph68%30.09 "HgN/A
10:00 AM48 °FCool.5 mph80%30.09 "HgN/A
8:00 AM42 °FQuite cool.6 mph94%30.09 "HgN/A
6:00 AM40 °FChilly.5 mph93%30.03 "HgN/A
5:00 AM40 °FChilly.7 mph96%30.02 "HgN/A
2:00 AM40 °FChilly.8 mph95%29.97 "HgN/A
1:00 AM41 °FQuite cool.9 mph93%29.94 "HgN/A
12:00 AM41 °FQuite cool.9 mph93%29.96 "HgN/A
11:00 PM
Thu, Sep 3
41 °FQuite cool.16 mph93%29.95 "HgN/A
10:00 PM42 °FQuite cool.16 mph86%29.93 "HgN/A
9:00 PM43 °FQuite cool.17 mph91%29.92 "HgN/A
8:00 PM44 °FQuite cool.13 mph95%29.89 "HgN/A
7:00 PM42 °FQuite cool.16 mph100%29.85 "HgN/A
3:00 PM45 °FCool.28 mph83%29.82 "HgN/A
2:00 PM44 °FQuite cool.23 mph91%29.80 "HgN/A
1:00 PM44 °FQuite cool.22 mph93%29.79 "HgN/A
Weather by CustomWeather, © 2015

See weather overviewHow to use our weather pages